Columbia, MO

5:57 AM CST on November 22, 2017 (GMT -0600)
Columbia Regional

Weather History for KCOU - May, 2011

Change the Weather History Date:

Wednesday, May 4, 2011

  Actual Average Record
Temperature  
Mean Temperature 51 °F 61 °F  
Max Temperature 66 °F 71 °F 91 °F (1952)
Min Temperature 36 °F 50 °F 28 °F (1907)
Degree Days  
Heating Degree Days 14 5  
Month to date heating degree days 61 23  
Since 1 July heating degree days 5021 4926  
Cooling Degree Days 0 1  
Month to date cooling degree days 0 4  
Year to date cooling degree days 33 29  
Moisture  
Dew Point 34 °F    
Average Humidity 57    
Maximum Humidity 82    
Minimum Humidity 31    
Precipitation  
Precipitation 0.00 in 0.17 in 2.58 in (2003)
Month to date precipitation 0.25 0.67  
Year to date precipitation 12.68 12.24  
Snow  
Snow 0.00 in 0.00 in 0.00 in (2015)
Month to date snowfall 0.0  
Since 1 July snowfall 18.0  
Snow Depth -    
Sea Level Pressure  
Sea Level Pressure 30.34 in    
Wind  
Wind Speed 7 mph (SE)    
Max Wind Speed 14 mph    
Max Gust Speed 17 mph    
Visibility 10 miles    
Events      
T = Trace of Precipitation, MM = Missing Value Source: NWS Daily Summary

Daily Weather History Graph

Daily Weather History Graph

Search for Another Location

Airport or City:

Trip Planner

Search our weather history database for the weather conditions in past years. The results will help you decide how hot, cold, wet, or windy it might be!

Date:

Astronomy

May. 04, 2011 Rise Set
Actual Time 6:07 AM CDT 8:03 PM CDT
Civil Twilight 5:39 AM CDT 8:33 PM CDT
Nautical Twilight 5:03 AM CDT 9:08 PM CDT
Astronomical Twilight 4:25 AM CDT 9:46 PM CDT
Moon 6:43 AM CDT (5/4) 9:47 PM CDT (5/4)
Length of Visible Light 14h 53m
Length of Day
13h 55m
New Moon, 2% of the Moon is Illuminated
May 4
New Moon
May 10
First Quarter
May 17
Full
May 24
Last Quarter
Jun 1
New

Hourly Weather History & Observations

Time (CDT) Temp. Windchill Dew Point Humidity Pressure Visibility Wind Dir Wind Speed Gust Speed Precip Events Conditions
12:54 AM 37.0 °F 33.3 °F 32.0 °F 82% 30.35 in 10.0 mi South 4.6 mph - N/A   Clear
1:54 AM 37.9 °F 33.5 °F 30.9 °F 76% 30.35 in 10.0 mi South 5.8 mph - N/A   Clear
2:54 AM 37.4 °F 31.4 °F 30.2 °F 75% 30.34 in 10.0 mi SW 8.1 mph - N/A   Clear
3:54 AM 37.9 °F 34.4 °F 30.9 °F 76% 30.34 in 10.0 mi SSW 4.6 mph - N/A   Clear
4:54 AM 36.0 °F 31.1 °F 30.0 °F 79% 30.35 in 10.0 mi SW 5.8 mph - N/A   Clear
5:54 AM 39.0 °F 35.7 °F 30.0 °F 70% 30.36 in 10.0 mi WSW 4.6 mph - N/A   Clear
6:54 AM 37.0 °F 34.5 °F 30.9 °F 79% 30.39 in 10.0 mi NW 3.5 mph - N/A   Clear
7:54 AM 45.0 °F - 35.1 °F 68% 30.41 in 10.0 mi Calm Calm - N/A   Clear
8:54 AM 51.1 °F - 36.0 °F 56% 30.42 in 10.0 mi Calm Calm - N/A   Clear
9:54 AM 55.0 °F - 33.1 °F 43% 30.43 in 10.0 mi North 4.6 mph - N/A   Clear
10:54 AM 57.9 °F - 33.1 °F 39% 30.42 in 10.0 mi Variable 5.8 mph - N/A   Clear
11:54 AM 60.1 °F - 32.0 °F 35% 30.41 in 10.0 mi Variable 4.6 mph - N/A   Clear
12:54 PM 61.0 °F - 34.0 °F 36% 30.38 in 10.0 mi NE 8.1 mph - N/A   Clear
1:54 PM 62.1 °F - 33.1 °F 34% 30.36 in 10.0 mi SE 5.8 mph - N/A   Clear
2:54 PM 64.0 °F - 34.0 °F 33% 30.33 in 10.0 mi Variable 6.9 mph - N/A   Clear
3:54 PM 64.9 °F - 36.0 °F 34% 30.31 in 10.0 mi SE 9.2 mph - N/A   Clear
4:54 PM 64.9 °F - 36.0 °F 34% 30.29 in 10.0 mi SE 9.2 mph - N/A   Clear
5:54 PM 64.9 °F - 36.0 °F 34% 30.28 in 10.0 mi ESE 10.4 mph - N/A   Clear
6:54 PM 63.0 °F - 35.1 °F 35% 30.26 in 10.0 mi ESE 8.1 mph - N/A   Clear
7:54 PM 60.1 °F - 36.0 °F 41% 30.26 in 10.0 mi ESE 9.2 mph - N/A   Clear
8:54 PM 57.0 °F - 35.1 °F 44% 30.27 in 10.0 mi ESE 10.4 mph - N/A   Clear
9:54 PM 54.0 °F - 35.1 °F 49% 30.28 in 10.0 mi ESE 9.2 mph - N/A   Clear
10:54 PM 53.1 °F - 36.0 °F 52% 30.28 in 10.0 mi ESE 10.4 mph - N/A   Clear
11:54 PM 51.1 °F - 37.0 °F 59% 30.27 in 10.0 mi SE 9.2 mph - N/A   Clear